Location: Linz
(48.3300°N, 14.3000°E)
Time: 10:23:24
(UTC+01:00)

N. Korean satellite - Pass Details

Date: 18 November 2017
Orbit: 460 x 514 km, 97.2° (Epoch: 24 November)

Event Time Altitude Azimuth Distance (km) Brightness Sun altitude
Rises 06:16:39 0° 22° (NNE) 2,606 10.3 -9.7°
Reaches altitude 10° 06:18:56 10° 34° (NE) 1,725 9.6 -9.3°
Maximum altitude 06:22:13 29° 96° (E) 963 9.0 -8.8°
Drops below altitude 10° 06:25:29 10° 157° (SSE) 1,730 10.0 -8.3°
Sets 06:27:47 0° 169° (S) 2,614 10.7 -7.9°
